Lapse_Rate
2.0 1.8 2.0 2.1 1.9 1.9 1.9 2.1 2.5 2.8 2.9 3.0 3.1 3.2 3.4 3.4 3.7 4.8 4.6 4.7 5.0 5.2
1.8 1.9 1.9 2.1 2.4 2.6 2.8 3.4 3.9 3.1 2.9 3.0 3.2 3.5 3.7 3.7 3.9 4.5 4.9 5.1 5.4 5.6
1.8 2.3 2.6 2.7 3.1 3.3 3.2 3.2 3.1 3.0 2.9 2.8 3.1 3.6 3.9 3.8 4.3 4.5 4.8 6.0 6.2 6.3
2.3 2.6 2.7 2.9 2.9 3.2 3.2 3.0 3.2 3.3 3.3 3.3 3.4 3.8 4.0 4.2 4.5 4.7 5.1 5.6 6.1 6.2
2.2 2.2 2.3 2.8 3.0 3.3 3.2 3.3 3.5 3.6 3.5 3.5 3.6 3.8 4.0 4.2 4.5 4.8 4.8 5.3 6.1 6.2
2.3 2.3 2.5 2.9 3.2 3.4 3.4 3.5 3.6 3.9 3.4 3.5 3.9 4.0 4.3 4.5 4.6 5.0 5.3 5.8 6.6 6.9
2.5 2.8 2.6 2.8 3.1 3.3 3.4 3.6 3.9 3.9 3.7 3.9 3.9 4.5 4.8 5.3 5.4 5.5 6.4 7.4 7.9 7.9
2.9 3.0 3.3 3.4 3.6 3.6 4.0 4.0 3.9 3.9 3.8 3.7 4.1 4.9 5.6 6.7 8.1 8.3 8.1 8.2 8.3 8.5
2.8 3.2 3.4 3.5 3.7 3.8 3.8 3.7 3.8 3.5 3.6 3.4 4.6 5.5 6.7 9.4 8.9 8.4 8.3 8.2 8.5 8.6
2.2 2.5 3.1 3.5 3.7 3.6 3.4 3.4 3.3 3.4 3.9 3.9 4.2 5.4 6.9 9.6 9.1 8.4 8.1 8.3 8.4 8.6
1.6 2.0 3.2 3.3 3.4 3.3 3.5 3.3 3.4 3.7 4.2 4.4 5.1 6.4 8.8 9.7 9.2 8.2 8.2 8.3 8.2 8.1
3.1 2.3 2.1 2.2 2.2 2.9 3.1 3.3 3.7 4.8 5.3 5.9 5.4 6.4 8.3 9.6 9.1 8.8 8.5 8.5 8.4 8.6
3.7 2.3 1.3 1.9 2.3 2.4 3.1 4.1 5.6 6.0 6.4 6.6 6.4 6.3 7.2 9.6 9.2 8.1 8.4 8.7 8.6 9.3
3.9 3.2 2.5 2.2 2.1 2.2 2.5 3.9 3.8 4.7 4.9 5.6 6.0 5.8 8.4 9.7 9.1 8.4 8.3 8.4 8.5 8.6
Wind_Speed
6 3 3 3 4 4 5 7 15 12 14 14 15 14 13 11 10 12 7 9 8 8
6 6 5 7 9 8 10 12 14 15 15 15 15 15 14 9 8 10 8 9 9 9
7 9 9 9 6 9 10 11 13 14 14 15 15 15 14 10 12 10 8 8 10 10
7 9 10 8 10 11 13 13 13 14 14 13 13 14 11 10 11 12 11 11 11 13
8 8 7 8 11 13 12 14 15 15 13 13 13 14 10 11 11 12 13 13 13 14
8 8 8 8 12 13 13 13 15 15 10 11 11 11 13 12 13 13 14 14 15 15
7 8 8 10 12 12 13 12 13 14 13 14 14 15 14 13 13 14 14 15 15 16
8 8 10 10 10 13 13 13 15 13 13 15 13 12 11 13 14 15 16 15 16 16
8 8 10 10 10 10 11 10 11 11 12 13 11 22 25 20 15 16 16 14 14 15
7 8 9 9 10 11 11 11 12 12 12 14 14 25 26 27 15 14 14 16 15 14
7 8 9 9 10 10 10 11 11 12 13 14 13 26 27 27 17 13 15 16 17 17
7 8 8 9 10 10 10 11 11 13 14 14 15 26 27 23 15 15 16 15 16 16
8 7 8 9 10 8 9 13 12 15 14 19 16 24 26 22 12 14 12 14 16 25
8 9 9 9 8 9 9 11 12 14 13 15 16 17 26 26 14 11 12 12 11 11
Wind_Direction
346 327 308 306 309 305 302 307 311 314 326 321 320 318 314 307 301 300 299 291 289 289
333 326 315 313 303 291 296 305 313 315 311 312 312 311 307 301 296 291 290 286 285 283
319 316 309 303 298 297 299 303 303 303 304 305 304 304 303 298 294 291 287 284 279 280
306 311 309 306 304 303 306 305 302 298 295 294 294 293 292 289 288 285 287 285 281 277
306 311 309 305 305 304 299 299 296 295 293 292 290 288 283 284 285 283 284 283 279 276
306 303 296 294 294 295 293 292 292 295 292 291 289 288 284 280 281 279 277 278 277 276
295 298 296 292 291 293 297 296 292 290 289 285 286 286 285 282 277 274 273 273 271 272
295 296 295 293 294 297 294 294 292 292 291 289 287 284 281 278 278 278 278 275 272 269
287 289 292 295 294 294 294 294 294 294 293 291 287 289 292 291 285 282 278 282 286 280
275 280 281 288 293 297 298 297 295 293 289 285 284 290 292 292 288 288 284 282 282 280
263 267 278 286 292 294 294 294 293 289 286 283 284 292 296 296 289 289 285 279 277 275
262 266 277 283 285 286 290 291 288 287 286 287 288 294 295 301 294 283 281 280 276 274
260 258 262 267 274 277 277 283 288 289 286 284 290 293 298 297 287 283 282 283 279 279
258 257 258 267 269 270 272 278 276 278 279 279 279 287 296 295 287 287 287 285 290 285